Weather History for Joplin, MO

Change the Weather History Date:

Sunday, May 19, 2013

  Actual Average Record
Temperature  
Mean Temperature 74 °F 68 °F  
Max Temperature 87 °F 78 °F 91 °F (1987)
Min Temperature 60 °F 57 °F 43 °F (1993)
Degree Days  
Heating Degree Days 0 2  
Month to date heating degree days 136 53  
Since 1 July heating degree days 4240 4056  
Cooling Degree Days 9 4  
Month to date cooling degree days 49 60  
Year to date cooling degree days 79 114  
Growing Degree Days 26 (Base 50)    
Moisture  
Dew Point 64 °F    
Average Humidity 68    
Maximum Humidity 87    
Minimum Humidity 48    
Precipitation  
Precipitation 1.17 in 0.19 in 1.75 in (1949)
Month to date precipitation 3.21 3.59  
Year to date precipitation 17.71 15.83  
Snow  
Snow 0.00 in - - ()
Month to date snowfall 0.0  
Snow Depth 0.00 in    
Sea Level Pressure  
Sea Level Pressure 29.71 in    
Wind  
Wind Speed 14 mph (South)    
Max Wind Speed 41 mph    
Max Gust Speed 49 mph    
Visibility 10 miles    
Events Rain , Thunderstorm    
T = Trace of Precipitation, MM = Missing Value Source: NWS Daily Summary

Daily Weather History Graph

Daily Weather History Graph

Search for Another Location

Airport:

Trip Planner

Search our weather history database for the weather conditions in past years. The results will help you decide how hot, cold, wet, or windy it might be!

Date:

Astronomy

May. 19, 2013 Rise Set
Actual Time 6:06 AM CDT 8:23 PM CDT
Civil Twilight 5:36 AM CDT 8:52 PM CDT
Nautical Twilight 5:00 AM CDT 9:28 PM CDT
Astronomical Twilight 4:21 AM CDT 10:08 PM CDT
Moon 2:35 PM CDT (5/19) 2:21 AM CDT (5/19)
Length of Visible Light 15h 15m
Length of Day
14h 16m
Waxing Gibbous, 65% of the Moon is Illuminated
May 19
Waxing Gibbous
May 24
Full
May 31
Last Quarter
Jun 8
New
Jun 16
First Quarter

Hourly Weather History & Observations

Time (CDT) Temp. Heat Index Dew Point Humidity Pressure Visibility Wind Dir Wind Speed Gust Speed Precip Events Conditions
12:53 AM 73.0 °F - 69.1 °F 87% 29.80 in 6.0 mi SSW 6.9 mph - N/A   Clear
1:53 AM 73.0 °F - 69.1 °F 87% 29.80 in 6.0 mi South 10.4 mph - N/A   Clear
2:35 AM 73.4 °F - 60.8 °F 65% 29.87 in 10.0 mi SW 23.0 mph 34.5 mph 0.00 in Rain Light Rain
2:53 AM 72.0 °F - 59.0 °F 64% 29.80 in 10.0 mi SW 9.2 mph - 0.00 in   Scattered Clouds
3:53 AM 69.1 °F - 59.0 °F 70% 29.71 in 10.0 mi SE 5.8 mph - N/A   Clear
4:53 AM 70.0 °F - 59.0 °F 68% 29.76 in 10.0 mi South 9.2 mph - N/A   Clear
5:53 AM 70.0 °F - 61.0 °F 73% 29.75 in 10.0 mi SSE 4.6 mph - N/A   Clear
6:53 AM 68.0 °F - 62.6 °F 83% 29.88 in 10.0 mi WNW 18.4 mph 24.2 mph N/A   Mostly Cloudy
7:53 AM 66.0 °F - 62.1 °F 87% 29.81 in 10.0 mi WNW 3.5 mph - 0.08 in   Mostly Cloudy
8:53 AM 69.1 °F - 64.0 °F 84% 29.79 in 10.0 mi ENE 3.5 mph - N/A   Mostly Cloudy
9:53 AM 73.9 °F - 64.9 °F 73% 29.76 in 10.0 mi East 4.6 mph - N/A   Mostly Cloudy
10:53 AM 79.0 °F - 66.0 °F 64% 29.74 in 10.0 mi South 13.8 mph 23.0 mph N/A   Scattered Clouds
11:53 AM 81.0 °F 82.5 °F 64.0 °F 56% 29.71 in 10.0 mi South 20.7 mph 32.2 mph N/A   Partly Cloudy
12:53 PM 82.0 °F 83.4 °F 64.0 °F 54% 29.69 in 10.0 mi South 20.7 mph 27.6 mph N/A   Clear
1:53 PM 84.9 °F 86.6 °F 64.9 °F 51% 29.68 in 10.0 mi South 19.6 mph 27.6 mph N/A   Partly Cloudy
2:53 PM 84.0 °F 85.8 °F 64.9 °F 53% 29.65 in 10.0 mi South 21.9 mph 26.5 mph N/A   Partly Cloudy
3:53 PM 86.0 °F 88.2 °F 66.0 °F 51% 29.62 in 10.0 mi South 18.4 mph 28.8 mph N/A   Clear
4:53 PM 84.0 °F 84.9 °F 63.0 °F 49% 29.60 in 10.0 mi South 18.4 mph 28.8 mph N/A   Overcast
5:53 PM 82.9 °F 83.7 °F 62.1 °F 49% 29.61 in 10.0 mi South 19.6 mph 26.5 mph N/A   Overcast
6:17 PM 82.4 °F 83.4 °F 62.6 °F 51% 29.65 in 10.0 mi South 21.9 mph 29.9 mph N/A Thunderstorm Thunderstorm
6:41 PM 80.6 °F 81.8 °F 62.6 °F 54% 29.67 in 10.0 mi SSW 15.0 mph 23.0 mph 0.00 in Rain Light Rain
6:53 PM 79.0 °F - 64.0 °F 60% 29.63 in 10.0 mi South 12.7 mph - 0.00 in Rain , Thunderstorm Light Thunderstorms and Rain
7:29 PM 77.0 °F - 64.4 °F 65% 29.60 in 10.0 mi South 20.7 mph 32.2 mph 0.01 in Rain Light Rain
7:51 PM 77.0 °F - 64.4 °F 65% 29.64 in 10.0 mi SSE 11.5 mph 23.0 mph 0.01 in   Clear
7:53 PM 77.0 °F - 64.9 °F 66% 29.60 in 10.0 mi SSE 11.5 mph - 0.01 in   Clear
8:30 PM 75.2 °F - 64.4 °F 69% 29.67 in 10.0 mi South 16.1 mph 24.2 mph N/A   Clear
8:53 PM 78.1 °F - 63.0 °F 60% 29.62 in 10.0 mi South 16.1 mph 26.5 mph N/A   Clear
9:53 PM 75.0 °F - 64.9 °F 71% 29.65 in 10.0 mi South 13.8 mph - N/A   Clear
10:53 PM 75.0 °F - 64.9 °F 71% 29.64 in 10.0 mi SSE 10.4 mph - N/A   Clear
11:53 PM 75.0 °F - 64.9 °F 71% 29.73 in 10.0 mi West 36.8 mph 49.5 mph 0.00 in Rain , Thunderstorm Light Rain
11:59 PM 64.4 °F - 60.8 °F 88% 29.80 in 1.2 mi West 28.8 mph 49.5 mph 0.20 in Rain , Thunderstorm Heavy Thunderstorms and Rain